CW9119 Weather Reports


Display with metric or nautical units.
time (UTC)temp
F
wind
direction
speed
MPH
gust
MPH
rain 1hr
in
rain 24hr
in
rain mn
in
humidity
%
barometer
mb
20260506145112 66 173 2.0 11.0 0.00 0.28 0.24 57 1004.1
20260506144111 66 248 0.0 5.0 0.00 0.28 0.24 57 1004.1
20260506142112 66 196 1.0 6.0 0.00 0.28 0.24 58 1004.5
20260506133111 66 156 2.0 10.0 0.00 0.28 0.24 61 1004.9
20260506132111 65 210 1.0 7.0 0.00 0.28 0.24 61 1004.8
20260506130111 63 163 0.0 5.0 0.00 0.28 0.24 68 1004.9
20260506125111 63 161 0.0 6.0 0.00 0.28 0.24 68 1005.1
20260506124111 63 174 2.0 8.0 0.00 0.28 0.24 68 1005.0
20260506122110 63 162 1.0 6.0 0.00 0.28 0.24 69 1005.1
20260506121110 62 170 3.0 12.0 0.00 0.28 0.24 70 1005.2
20260506115110 61 165 1.0 8.0 0.01 0.28 0.24 73 1005.2
20260506114110 60 153 6.0 14.0 0.01 0.28 0.24 73 1005.1
20260506112110 60 159 4.0 10.0 0.01 0.28 0.24 73 1005.2
20260506111110 61 165 1.0 6.0 0.01 0.28 0.24 74 1005.2
20260506110110 61 159 2.0 8.0 0.00 0.28 0.24 74 1005.5
20260506104110 61 155 1.0 10.0 0.00 0.28 0.24 78 1005.3
20260506103110 60 147 1.0 6.0 0.00 0.28 0.24 81 1005.1
20260506102110 59 153 2.0 12.0 0.00 0.28 0.24 80 1005.1
20260506101109 58 170 3.0 7.0 0.00 0.28 0.24 81 1004.9
20260506095113 59 153 2.0 11.0 0.00 0.28 0.24 80 1005.0
20260506093113 58 160 3.0 11.0 0.00 0.28 0.24 82 1004.9
20260506085113 57 155 4.0 12.0 0.00 0.28 0.24 85 1004.6
20260506083113 56 155 0.0 2.0 0.00 0.28 0.24 86 1004.4
20260506082113 56 142 0.0 5.0 0.00 0.28 0.24 88 1004.5
20260506081112 55 154 1.0 6.0 0.00 0.28 0.24 88 1004.3
20260506080112 55 153 0.0 5.0 0.00 0.28 0.24 89 1004.2
20260506073112 55 155 0.0 6.0 0.00 0.28 0.24 90 1004.3
20260506072112 55 152 1.0 7.0 0.00 0.28 0.24 92 1004.3
20260506062112 51 242 1.0 6.0 0.00 0.28 0.24 94 1004.1
20260506061111 51 278 0.0 0.0 0.00 0.28 0.24 94 1004.2
20260506060111 51 251 1.0 4.0 0.00 0.28 0.24 94 1004.2
20260506051111 51 329 0.0 0.0 0.00 0.28 0.24 94 1004.0
20260506050111 51 329 0.0 5.0 0.00 0.28 0.24 94 1003.8
20260506044111 50 329 0.0 0.0 0.00 0.28 0.24 94 1003.7
20260506035110 51 329 0.0 0.0 0.00 0.28 0.24 94 1003.8
20260506032110 51 329 0.0 2.0 0.00 0.28 0.24 94 1003.8
20260506025110 50 330 0.0 0.0 0.00 0.28 0.24 93 1004.0
20260506024110 50 330 0.0 0.0 0.00 0.28 0.24 93 1003.8
20260506021109 51 330 0.0 0.0 0.00 0.28 0.24 93 1003.8
20260506015110 51 330 0.0 0.0 0.02 0.28 0.24 93 1003.8
20260506012109 51 330 0.0 0.0 0.04 0.28 0.24 92 1003.5
20260506010109 51 330 0.0 1.0 0.15 0.27 0.23 92 1003.8
20260506005109 52 329 0.0 0.0 0.14 0.25 0.21 92 1004.3
20260506001114 52 329 0.0 0.0 0.13 0.17 0.13 91 1005.2
20260506000113 53 329 0.0 0.0 0.07 0.12 0.08 91 1005.4
20260505225113 56 273 5.0 12.0 0.00 0.04 0.00 90 1005.3
20260505224113 55 246 3.0 10.0 0.00 0.04 0.00 91 1005.2
20260505223113 55 277 3.0 10.0 0.00 0.04 0.00 91 1005.1
20260505221113 55 146 0.0 5.0 0.00 0.04 0.00 91 1004.9
20260505212112 55 80 0.0 0.0 0.00 0.04 0.04 90 1003.7
20260505211112 55 80 0.0 0.0 0.00 0.04 0.04 90 1003.8
20260505204112 55 80 0.0 0.0 0.01 0.04 0.04 89 1003.6
20260505203112 55 80 0.0 0.0 0.02 0.04 0.04 88 1003.7
20260505202112 56 80 0.0 0.0 0.02 0.04 0.04 88 1003.7
20260505201112 56 80 0.0 0.0 0.03 0.04 0.04 87 1003.7
20260505200112 56 80 0.0 0.0 0.03 0.03 0.03 86 1004.1
20260505194112 57 80 0.0 1.0 0.03 0.03 0.03 85 1004.6
20260505193112 58 91 2.0 7.0 0.02 0.02 0.02 84 1004.6
20260505192112 59 142 0.0 0.0 0.02 0.02 0.02 83 1004.8
20260505191111 60 142 1.0 7.0 0.01 0.01 0.01 82 1004.9
20260505183111 60 30 0.0 0.0 0.00 0.00 0.00 78 1003.8
20260505181111 61 31 0.0 4.0 0.00 0.00 0.00 78 1003.6
20260505174112 62 99 1.0 8.0 0.00 0.00 0.00 78 1003.9
20260505173111 62 57 2.0 10.0 0.00 0.00 0.00 77 1003.9
20260505164110 65 281 2.0 13.0 0.00 0.00 0.00 72 1004.3
20260505152110 66 360 5.0 14.0 0.00 0.00 0.00 67 1004.9
20260505151110 66 30 6.0 13.0 0.00 0.00 0.00 62 1004.8